DELTA 1 DEB, 10866

Orbit data source: Space-Track

DELTA 1 DEB, 10866 is space debris in SSO originally from a launch on Thu, 29 Jul 1976 UTC launched from the Air Force Western Test Range (AFWTR). Debris objects in space refer to the collection of defunct objects orbiting the Earth. Examples of debris include non-operational satellites, rocket bodies, and fragments generated from explosions, collisions, or faulty payload assembly.

Loading next visibility...
Identifier
10866, 1976-077CU
Orbit
SSO
Country
Flag of USUS
Related business
Manufacturer
Unknown
Mission
Spacecraft
Bus & Motor
Unknown
Mass
Unknown
Launch date (UTC)
1976-07-29 (50 years ago)
Launch vehicle
Unknown
Launch site
Air Force Western Test Range (AFWTR)
Object type
Payload
Rocket body
Debris
Shape & HBR
Unknown shape, 0.1 m
Radar Cross Section
Medium (>0.1 m² and <1 m²)

Expand to show TLE details & history
Last TLE update: 2 days ago

TLE from 2 days ago
0 DELTA 1 DEB
1 10866U 76077CU  26254.35134245 -.00000008  00000-0  32680-3 0  9995
2 10866 102.7387 223.9368 0148726 270.2524 257.4729 12.30646526250552
Epoch: 2026-09-11T08:25Z
TLE epoch observation values (Epoch: 2026-09-11T08:25:55.987Z)
Latitude
13.55424°
Longitude
-69.81336°
Altitude
1,575.513 km
Speed
7.069 km/s
True Right ascension
03h 08m 11s
True Declination
13° 29' 03"
Sunlit
Object was in daylight at epoch
Visualization orbit readout
Latitude
Unknown
Longitude
Unknown
Altitude
Unknown
Speed
Unknown
Apparent Right ascension
Unknown
Apparent Declination
Unknown
Sunlit
N/A
Visualization observer readout
Local Sidereal Time
17:33:50
Azimuth
Unknown
Elevation
Unknown
Doppler factor
Unknown
Orbital elements
Apogee altitude
1,661.96 km
Perigee altitude
1,426.311 km
Semi-major axis
7,922.273 km
Eccentricity
0.01487
Inclination
102.7387°
RAAN
223.9368°
Arg. of periapsis
270.2524°
True anomaly
255.81611°
Mean anomaly
257.4729°
Eccentric anomaly
256.64381°
Mean motion
3.078 °/min
Orbital period
116.96 mins
BSTAR
0.0003268
Loading maneuver chart data...
Computing Atmospheric mass density...
Loading historical data...
Loading historical data...
Loading historical data...
Loading historical data...
Loading historical data...
Loading historical data...
Loading historical data...

Documentation

Showing up to 5 results
|